When you browse on this site, cookies collect data to enhance your experience and personalize the content and advertising you see.
Visit our Privacy Policy to learn more. By continuing to use the site, you agree to this use of cookies and data.
  • In Portugal
  • List of Countries
  • For 7 days
  • Water Temperature
  • Satellite Maps
  • Weather Map
  • Weather Widgets
  • user-avatar
    Login

    Hourly Weather Lyamino

    Today, 26 April, Friday

    Time Temperature Precipitation Wind Pressure Humidity
    00:00 +1°C° 0 mm 1 mps 753 mmHg 83%
    01:00 0°C° 0 mm 1 mps 753 mmHg 84%
    02:00 0°C° 0 mm 1 mps 753 mmHg 83%
    03:00 0°C° 0 mm 1 mps 752 mmHg 82%
    04:00 0°C° 0 mm 1 mps 752 mmHg 82%
    05:00 +1°C° 0 mm 1 mps 752 mmHg 76%
    06:00 +1°C° 0 mm 2 mps 752 mmHg 71%
    07:00 +2°C° 0 mm 2 mps 752 mmHg 65%
    08:00 +3°C° 0.3 mm 3 mps 751 mmHg 63%
    09:00 +4°C° 0.3 mm 3 mps 751 mmHg 60%
    10:00 +5°C° 0.3 mm 4 mps 751 mmHg 57%
    11:00 +6°C° 0.3 mm 4 mps 751 mmHg 54%
    12:00 +6°C° 0.3 mm 4 mps 750 mmHg 52%
    13:00 +7°C° 0.3 mm 4 mps 750 mmHg 49%
    14:00 +6°C° 0.1 mm 4 mps 750 mmHg 49%
    15:00 +6°C° 0.1 mm 5 mps 750 mmHg 49%
    16:00 +6°C° 0.1 mm 5 mps 750 mmHg 49%
    17:00 +5°C° 0 mm 4 mps 750 mmHg 52%
    18:00 +4°C° 0 mm 3 mps 750 mmHg 56%
    19:00 +4°C° 0 mm 2 mps 750 mmHg 60%
    20:00 +3°C° 0 mm 2 mps 750 mmHg 65%
    21:00 +1°C° 0 mm 2 mps 751 mmHg 70%
    22:00 +1°C° 0 mm 1 mps 751 mmHg 75%
    23:00 +1°C° 0 mm 1 mps 751 mmHg 77%

    Tomorrow, 27 April, Saturday

    Time Temperature Precipitation Wind Pressure Humidity
    00:00 0°C° 0 mm 1 mps 751 mmHg 79%
    01:00 -1°C° 0 mm 0 mps 751 mmHg 81%
    02:00 0°C° 0 mm 1 mps 751 mmHg 81%
    03:00 0°C° 0 mm 1 mps 750 mmHg 81%
    04:00 -1°C° 0 mm 1 mps 750 mmHg 81%
    05:00 +1°C° 0 mm 1 mps 750 mmHg 77%
    06:00 +1°C° 0 mm 2 mps 749 mmHg 72%
    07:00 +2°C° 0 mm 2 mps 749 mmHg 68%
    08:00 +2°C° 0.5 mm 3 mps 748 mmHg 68%
    09:00 +3°C° 0.5 mm 4 mps 747 mmHg 68%
    10:00 +4°C° 0.5 mm 4 mps 746 mmHg 68%
    11:00 +5°C° 1 mm 5 mps 746 mmHg 67%
    12:00 +6°C° 1 mm 5 mps 745 mmHg 67%
    13:00 +7°C° 1 mm 5 mps 744 mmHg 67%
    14:00 +8°C° 0.3 mm 5 mps 743 mmHg 63%
    15:00 +9°C° 0.3 mm 5 mps 743 mmHg 60%
    16:00 +10°C° 0.3 mm 5 mps 742 mmHg 57%
    17:00 +10°C° 0.2 mm 4 mps 742 mmHg 64%
    18:00 +8°C° 0.2 mm 4 mps 742 mmHg 71%
    19:00 +8°C° 0.2 mm 3 mps 742 mmHg 78%
    20:00 +7°C° 1.1 mm 3 mps 742 mmHg 84%
    21:00 +6°C° 1.1 mm 2 mps 742 mmHg 91%
    22:00 +6°C° 1.1 mm 1 mps 742 mmHg 98%
    23:00 +5°C° 1.2 mm 1 mps 741 mmHg 96%

    Day after tomorrow, 28 April, Sunday

    Time Temperature Precipitation Wind Pressure Humidity
    00:00 +3°C° 1.2 mm 2 mps 741 mmHg 94%
    01:00 +2°C° 1.2 mm 2 mps 741 mmHg 93%
    02:00 +1°C° 1.5 mm 2 mps 741 mmHg 94%
    03:00 +1°C° 1.5 mm 2 mps 741 mmHg 95%
    04:00 -1°C° 1.5 mm 2 mps 740 mmHg 96%
    05:00 -1°C° 0.6 mm 3 mps 740 mmHg 95%
    06:00 -1°C° 0.6 mm 3 mps 740 mmHg 94%
    07:00 -1°C° 0.6 mm 3 mps 741 mmHg 93%
    08:00 -2°C° 0.3 mm 4 mps 741 mmHg 91%
    09:00 -1°C° 0.3 mm 4 mps 742 mmHg 88%
    10:00 0°C° 0.3 mm 4 mps 742 mmHg 86%
    11:00 0°C° 0.1 mm 4 mps 743 mmHg 83%
    12:00 +1°C° 0.1 mm 4 mps 743 mmHg 79%
    13:00 +1°C° 0.1 mm 4 mps 744 mmHg 76%
    14:00 +1°C° 0.1 mm 4 mps 744 mmHg 74%
    15:00 +3°C° 0.1 mm 4 mps 744 mmHg 71%
    16:00 +3°C° 0.1 mm 4 mps 745 mmHg 69%
    17:00 +1°C° 0.1 mm 4 mps 745 mmHg 71%
    18:00 +1°C° 0.1 mm 3 mps 745 mmHg 74%
    19:00 +1°C° 0.1 mm 3 mps 746 mmHg 76%
    20:00 0°C° 0 mm 3 mps 746 mmHg 80%
    21:00 -1°C° 0 mm 2 mps 747 mmHg 83%
    22:00 -3°C° 0 mm 2 mps 747 mmHg 87%
    23:00 -3°C° 0 mm 2 mps 747 mmHg 88%

    29 April, Monday

    Time Temperature Precipitation Wind Pressure Humidity
    00:00 -4°C° 0 mm 2 mps 748 mmHg 89%
    01:00 -4°C° 0 mm 2 mps 748 mmHg 91%
    02:00 -5°C° 0 mm 2 mps 748 mmHg 91%
    03:00 -5°C° 0 mm 2 mps 749 mmHg 92%
    04:00 -6°C° 0 mm 2 mps 749 mmHg 92%
    05:00 -5°C° 0 mm 2 mps 750 mmHg 90%
    06:00 -4°C° 0 mm 2 mps 750 mmHg 87%
    07:00 -3°C° 0 mm 2 mps 751 mmHg 85%
    08:00 -2°C° 0.1 mm 2 mps 751 mmHg 81%
    09:00 -1°C° 0.1 mm 2 mps 751 mmHg 78%
    10:00 +1°C° 0.1 mm 2 mps 752 mmHg 74%
    11:00 0°C° 0.2 mm 3 mps 752 mmHg 70%
    12:00 +1°C° 0.2 mm 3 mps 752 mmHg 65%
    13:00 +2°C° 0.2 mm 3 mps 752 mmHg 61%
    14:00 +2°C° 0.2 mm 3 mps 752 mmHg 60%
    15:00 +2°C° 0.2 mm 3 mps 751 mmHg 60%
    16:00 +2°C° 0.2 mm 3 mps 751 mmHg 59%
    17:00 +1°C° 0.1 mm 3 mps 751 mmHg 63%
    18:00 0°C° 0.1 mm 3 mps 751 mmHg 66%
    19:00 +1°C° 0.1 mm 2 mps 752 mmHg 70%
    20:00 -2°C° 0 mm 2 mps 752 mmHg 73%
    21:00 -3°C° 0 mm 2 mps 752 mmHg 77%
    22:00 -4°C° 0 mm 2 mps 752 mmHg 81%
    23:00 -4°C° 0 mm 2 mps 752 mmHg 82%

    30 April, Tuesday

    Time Temperature Precipitation Wind Pressure Humidity
    00:00 -5°C° 0 mm 2 mps 752 mmHg 84%
    01:00 -3°C° 0 mm 1 mps 752 mmHg 85%
    02:00 -3°C° 0 mm 1 mps 752 mmHg 85%
    03:00 -3°C° 0 mm 1 mps 751 mmHg 86%
    04:00 -3°C° 0 mm 1 mps 751 mmHg 87%
    05:00 -2°C° 0 mm 1 mps 751 mmHg 82%
    06:00 -3°C° 0 mm 2 mps 751 mmHg 77%
    07:00 -2°C° 0 mm 2 mps 751 mmHg 72%
    08:00 -1°C° 0 mm 2 mps 751 mmHg 66%
    09:00 0°C° 0 mm 3 mps 751 mmHg 60%
    10:00 +1°C° 0 mm 3 mps 751 mmHg 54%
    11:00 +1°C° 0 mm 3 mps 750 mmHg 53%
    12:00 +2°C° 0 mm 3 mps 750 mmHg 52%
    13:00 +1°C° 0 mm 4 mps 750 mmHg 51%
    14:00 +1°C° 0 mm 4 mps 749 mmHg 52%
    15:00 +1°C° 0 mm 4 mps 749 mmHg 52%
    16:00 +2°C° 0 mm 3 mps 749 mmHg 53%
    17:00 +2°C° 0 mm 3 mps 749 mmHg 57%
    18:00 +1°C° 0 mm 3 mps 749 mmHg 62%
    19:00 +2°C° 0 mm 2 mps 749 mmHg 66%
    20:00 +1°C° 0 mm 2 mps 749 mmHg 68%
    21:00 -1°C° 0 mm 2 mps 749 mmHg 71%
    22:00 -1°C° 0 mm 3 mps 749 mmHg 74%
    23:00 -2°C° 0 mm 3 mps 748 mmHg 75%

    1 May, Wednesday

    Time Temperature Precipitation Wind Pressure Humidity
    00:00 -2°C° 0 mm 3 mps 748 mmHg 76%
    01:00 -2°C° 0 mm 3 mps 748 mmHg 77%
    02:00 -2°C° 0 mm 3 mps 748 mmHg 79%
    03:00 -4°C° 0 mm 3 mps 748 mmHg 81%
    04:00 -4°C° 0 mm 3 mps 748 mmHg 83%
    05:00 -2°C° 0 mm 3 mps 748 mmHg 80%
    06:00 -1°C° 0 mm 3 mps 748 mmHg 76%
    07:00 0°C° 0 mm 3 mps 748 mmHg 72%
    08:00 +1°C° 0 mm 3 mps 748 mmHg 70%
    09:00 +3°C° 0 mm 3 mps 748 mmHg 68%
    10:00 +4°C° 0 mm 4 mps 748 mmHg 67%
    11:00 +5°C° 0.1 mm 4 mps 748 mmHg 62%
    12:00 +6°C° 0.1 mm 4 mps 748 mmHg 57%
    13:00 +7°C° 0.1 mm 4 mps 748 mmHg 53%
    14:00 +7°C° 0.1 mm 4 mps 748 mmHg 53%
    15:00 +7°C° 0.1 mm 4 mps 748 mmHg 53%
    16:00 +7°C° 0.1 mm 4 mps 748 mmHg 54%
    17:00 +6°C° 0 mm 4 mps 748 mmHg 60%
    18:00 +5°C° 0 mm 3 mps 748 mmHg 66%
    19:00 +5°C° 0 mm 2 mps 748 mmHg 73%
    20:00 +4°C° 0 mm 2 mps 748 mmHg 77%
    21:00 +3°C° 0 mm 2 mps 748 mmHg 82%
    22:00 +2°C° 0 mm 2 mps 749 mmHg 87%
    23:00 +1°C° 0 mm 3 mps 749 mmHg 86%
    Show more